Location: Bishop�s Knoyle
(51.0728°N, 2.1714°W)
Time: 15:37:15
(UTC+00:00)

PCSat - Visible Passes

Search period start: 27 November 2021 00:00
Search period end: 07 December 2021 00:00
Orbit: 785 x 794 km, 67.1° (Epoch: 26 November)

Date Brightness Start Highest point End Pass type
(mag) Time Alt. Az. Time Alt. Az. Time Alt. Az.
27 Nov 11.3 17:08:23 10° NNW 17:11:48 16° NNE 17:14:47 11° NE visible
27 Nov 10.6 18:51:47 10° NNW 18:55:30 32° N 18:55:30 32° N visible
27 Nov 12.1 20:35:08 10° NW 20:36:12 16° NW 20:36:12 16° NW visible
28 Nov 10.5 18:20:45 10° NNW 18:25:27 30° NNE 18:25:27 30° NNE visible
28 Nov 11.5 20:04:00 10° NW 20:06:10 25° NW 20:06:10 25° NW visible
29 Nov 10.6 17:49:43 10° NNW 17:54:15 26° NNE 17:55:28 24° NE visible
29 Nov 10.7 19:32:54 10° NW 19:36:12 38° NW 19:36:12 38° NW visible
30 Nov 10.8 17:18:40 10° NNW 17:22:55 23° NNE 17:25:34 16° ENE visible
30 Nov 9.9 19:01:51 10° NW 19:06:18 56° N 19:06:18 56° N visible
30 Nov 12.2 20:45:52 10° WNW 20:47:01 15° WNW 20:47:01 15° WNW visible
01 Dec 11.0 16:47:35 10° NNW 16:51:34 20° NNE 16:55:32 10° ENE visible
01 Dec 9.6 18:30:48 10° NNW 18:36:09 55° NE 18:36:31 53° ENE visible
01 Dec 11.6 20:14:31 10° NW 20:17:15 25° WNW 20:17:15 25° WNW visible
02 Dec 9.9 17:59:45 10° NNW 18:04:58 44° NE 18:06:52 32° E visible
02 Dec 10.7 19:43:17 10° NW 19:47:36 40° W 19:47:36 40° W visible
03 Dec 10.2 17:28:43 10° NNW 17:33:46 36° NE 17:37:26 17° E visible
03 Dec 10.1 19:12:06 10° NW 19:17:25 56° WSW 19:18:12 51° SSW visible
04 Dec 10.4 16:57:42 10° NNW 17:02:30 31° NE 17:07:17 10° E visible
04 Dec 9.7 18:40:58 10° NW 18:46:24 73° WSW 18:49:04 31° SSE visible
04 Dec 12.2 20:26:12 10° WNW 20:28:51 14° WSW 20:29:52 13° WSW visible
05 Dec 9.5 18:09:52 10° NW 18:15:20 88° NE 18:20:26 12° SE visible
05 Dec 12.0 19:54:22 10° WNW 19:58:02 19° WSW 20:01:17 11° SW visible
06 Dec 9.5 17:38:47 10° NW 17:44:14 70° NE 17:49:39 10° SE visible
06 Dec 11.6 19:22:51 10° WNW 19:27:10 25° WSW 19:31:27 10° SSW visible
